Showing default

FEMTO-1, 68419

Orbit data source: Space-Track

FEMTO-1, 68419 is a Bulgarian payload satellite in SSO that was launched on Mon, 30 Mar 2026 UTC via an FALCON 9 launch vehicle from the Air Force Western Test Range (AFWTR). Payload-class satellites include a variety of spacecraft equipped with specific instruments for various scientific and technological missions. These include communications satellites like Starlink; space stations such as the ISS; scientific satellites like the Hubble; Earth observation satellites from companies like Planet Labs, Umbra, and HawkEye 360; GPS; miniature CubeSats for education and research; and military/defense satellites.

Loading next visibility...
Identifier
68419, 2026-067D
Orbit
SSO
Country
Flag of BGBG / BGR
Related business
Manufacturer
Endurosat
Mission
Operational spacecraft
Bus & Motor
CUBESAT 1U?, Unknown motor
Mass
~1 kg wet, ~1 kg dry
Launch date (UTC)
2026-03-30 (1 month ago)
Launch vehicle
FALCON 9
Launch site
Air Force Western Test Range (AFWTR)
Object type
Payload
Rocket body
Debris
Shape & HBR
Unknown shape, 14.5 m
Radar Cross Section
RCS unknown

Expand to show TLE details & history
Last TLE update: 8 hours ago

TLE from 8 hours ago
0 FEMTO-1
1 68419U 26067D   26127.19320105  .00003687  00000-0  18116-3 0  9992
2 68419  97.4522  86.2979 0003312  70.1583 290.0008 15.18667169  5726
Epoch: 2026-05-07T04:38Z
TLE epoch observation values (Epoch: 2026-05-07T04:38:12.570Z)
Latitude
-0.00004°
Longitude
151.70268°
Altitude
512.175 km
Speed
7.608 km/s
True Right ascension
05h 45m 11s
True Declination
0° 00' 00"
Sunlit
Object was in daylight at epoch
Visualization orbit readout
Latitude
Unknown
Longitude
Unknown
Altitude
Unknown
Speed
Unknown
Apparent Right ascension
Unknown
Apparent Declination
Unknown
Sunlit
N/A
Visualization observer readout
Local Sidereal Time
21:01:46
Azimuth
Unknown
Elevation
Unknown
Doppler factor
Unknown
Orbital elements
Apogee altitude
509.118 km
Perigee altitude
504.557 km
Semi-major axis
6,884.974 km
Eccentricity
0.00033
Inclination
97.4522°
RAAN
86.2979°
Arg. of periapsis
70.1583°
True anomaly
289.96513°
Mean anomaly
290.0008°
Eccentric anomaly
289.98297°
Mean motion
3.79918 °/min
Orbital period
94.76 mins
BSTAR
0.00018116
Loading maneuver chart data...
Computing Atmospheric mass density...
Loading historical data...
Loading historical data...
Loading historical data...
Loading historical data...
Loading historical data...
Loading historical data...
Loading historical data...

Documentation

Showing up to 5 results
|